Year,Month,Day,Hour,Minute,Value (Times are PST for temperature in C)
2006,06,28,00,00,11.80
2006,06,28,00,01,11.80
2006,06,28,00,02,11.80
2006,06,28,00,03,11.80
2006,06,28,00,04,11.70
2006,06,28,00,05,11.70
2006,06,28,00,06,11.70
2006,06,28,00,07,11.70
2006,06,28,00,08,11.70
2006,06,28,00,09,11.70
2006,06,28,00,10,11.70
2006,06,28,00,11,11.60
2006,06,28,00,12,11.60
2006,06,28,00,13,11.60
2006,06,28,00,14,11.60
2006,06,28,00,15,11.60
2006,06,28,00,16,11.60
2006,06,28,00,17,11.60
2006,06,28,00,18,11.60
2006,06,28,00,19,11.60
2006,06,28,00,20,11.60
2006,06,28,00,21,11.40
2006,06,28,00,22,11.40
2006,06,28,00,23,11.40
2006,06,28,00,24,11.40
2006,06,28,00,25,11.40
2006,06,28,00,26,11.40
2006,06,28,00,27,11.40
2006,06,28,00,28,11.30
2006,06,28,00,29,11.30
2006,06,28,00,30,11.30
2006,06,28,00,31,11.30
2006,06,28,00,32,11.20
2006,06,28,00,33,11.20
2006,06,28,00,34,11.20
2006,06,28,00,35,11.20
2006,06,28,00,36,11.20
2006,06,28,00,37,11.20
2006,06,28,00,38,11.20
2006,06,28,00,39,11.30
2006,06,28,00,40,11.30
2006,06,28,00,41,11.20
2006,06,28,00,42,11.20
2006,06,28,00,43,11.20
2006,06,28,00,44,11.20
2006,06,28,00,45,11.20
2006,06,28,00,46,11.20
2006,06,28,00,47,11.20
2006,06,28,00,48,11.10
2006,06,28,00,49,11.10
2006,06,28,00,50,11.10
2006,06,28,00,51,11.10
2006,06,28,00,52,11.10
2006,06,28,00,53,11.10
2006,06,28,00,54,11.10
2006,06,28,00,55,11.10
2006,06,28,00,56,11.10
2006,06,28,00,57,11.10
2006,06,28,00,58,11.10
2006,06,28,00,59,11.10
2006,06,28,01,00,11.10
2006,06,28,01,01,11.10
2006,06,28,01,02,11.10
2006,06,28,01,03,11.10
2006,06,28,01,04,11.10
2006,06,28,01,05,11.00
2006,06,28,01,06,10.90
2006,06,28,01,07,10.90
2006,06,28,01,08,10.90
2006,06,28,01,09,10.90
2006,06,28,01,10,10.80
2006,06,28,01,11,10.80
2006,06,28,01,12,10.80
2006,06,28,01,13,10.80
2006,06,28,01,14,10.80
2006,06,28,01,15,10.80
2006,06,28,01,16,10.70
2006,06,28,01,17,10.70
2006,06,28,01,18,10.70
2006,06,28,01,19,10.70
2006,06,28,01,20,10.60
2006,06,28,01,21,10.60
2006,06,28,01,22,10.60
2006,06,28,01,23,10.60
2006,06,28,01,24,10.60
2006,06,28,01,25,10.60
2006,06,28,01,26,10.60
2006,06,28,01,27,10.60
2006,06,28,01,28,10.60
2006,06,28,01,29,10.60
2006,06,28,01,30,10.50
2006,06,28,01,31,10.40
2006,06,28,01,32,10.40
2006,06,28,01,33,10.40
2006,06,28,01,34,10.40
2006,06,28,01,35,10.30
2006,06,28,01,36,10.30
2006,06,28,01,37,10.30
2006,06,28,01,38,10.30
2006,06,28,01,39,10.20
2006,06,28,01,40,10.20
2006,06,28,01,41,10.20
2006,06,28,01,42,10.20
2006,06,28,01,43,10.10
2006,06,28,01,44,10.10
2006,06,28,01,45,10.10
2006,06,28,01,46,10.10
2006,06,28,01,47,9.90
2006,06,28,01,48,9.90
2006,06,28,01,49,9.90
2006,06,28,01,50,9.80
2006,06,28,01,51,9.70
2006,06,28,01,52,9.70
2006,06,28,01,53,9.60
2006,06,28,01,54,9.60
2006,06,28,01,55,9.50
2006,06,28,01,56,9.50
2006,06,28,01,57,9.50
2006,06,28,01,58,9.40
2006,06,28,01,59,9.40
2006,06,28,02,00,9.40
2006,06,28,02,01,9.40
2006,06,28,02,02,9.40
2006,06,28,02,03,9.40
2006,06,28,02,04,9.50
2006,06,28,02,05,9.50
2006,06,28,02,06,9.50
2006,06,28,02,07,9.50
2006,06,28,02,08,9.50
2006,06,28,02,09,9.40
2006,06,28,02,10,9.30
2006,06,28,02,11,9.30
2006,06,28,02,12,9.20
2006,06,28,02,13,9.20
2006,06,28,02,14,9.10
2006,06,28,02,15,9.10
2006,06,28,02,16,9.10
2006,06,28,02,17,9.10
2006,06,28,02,18,9.10
2006,06,28,02,19,9.10
2006,06,28,02,20,9.10
2006,06,28,02,21,9.10
2006,06,28,02,22,9.10
2006,06,28,02,23,9.10
2006,06,28,02,24,9.10
2006,06,28,02,25,9.10
2006,06,28,02,26,9.10
2006,06,28,02,27,9.10
2006,06,28,02,28,9.10
2006,06,28,02,29,9.10
2006,06,28,02,30,9.20
2006,06,28,02,31,9.20
2006,06,28,02,32,9.20
2006,06,28,02,33,9.20
2006,06,28,02,34,9.20
2006,06,28,02,35,9.20
2006,06,28,02,36,9.20
2006,06,28,02,37,9.20
2006,06,28,02,38,9.20
2006,06,28,02,39,9.20
2006,06,28,02,40,9.20
2006,06,28,02,41,9.30
2006,06,28,02,42,9.30
2006,06,28,02,43,9.30
2006,06,28,02,44,9.30
2006,06,28,02,45,9.20
2006,06,28,02,46,9.20
2006,06,28,02,47,9.20
2006,06,28,02,48,9.20
2006,06,28,02,49,9.20
2006,06,28,02,50,9.20
2006,06,28,02,51,9.20
2006,06,28,02,52,9.20
2006,06,28,02,53,9.20
2006,06,28,02,54,9.20
2006,06,28,02,55,9.20
2006,06,28,02,56,9.20
2006,06,28,02,57,9.10
2006,06,28,02,58,9.10
2006,06,28,02,59,9.10
2006,06,28,03,00,9.00
2006,06,28,03,01,9.00
2006,06,28,03,02,9.00
2006,06,28,03,03,9.10
2006,06,28,03,04,9.10
2006,06,28,03,05,9.20
2006,06,28,03,06,9.20
2006,06,28,03,07,9.20
2006,06,28,03,08,9.20
2006,06,28,03,09,9.20
2006,06,28,03,10,9.10
2006,06,28,03,11,9.00
2006,06,28,03,12,8.90
2006,06,28,03,13,8.80
2006,06,28,03,14,8.70
2006,06,28,03,15,8.60
2006,06,28,03,16,8.60
2006,06,28,03,17,8.50
2006,06,28,03,18,8.50
2006,06,28,03,19,8.40
2006,06,28,03,20,8.30
2006,06,28,03,21,8.30
2006,06,28,03,22,8.30
2006,06,28,03,23,8.30
2006,06,28,03,24,8.30
2006,06,28,03,25,8.20
2006,06,28,03,26,8.20
2006,06,28,03,27,8.20
2006,06,28,03,28,8.30
2006,06,28,03,29,8.30
2006,06,28,03,30,8.30
2006,06,28,03,31,8.40
2006,06,28,03,32,8.40
2006,06,28,03,33,8.40
2006,06,28,03,34,8.30
2006,06,28,03,35,8.30
2006,06,28,03,36,8.30
2006,06,28,03,37,8.20
2006,06,28,03,38,8.20
2006,06,28,03,39,8.20
2006,06,28,03,40,8.20
2006,06,28,03,41,8.20
2006,06,28,03,42,8.20
2006,06,28,03,43,8.20
2006,06,28,03,44,8.20
2006,06,28,03,45,8.20
2006,06,28,03,46,8.20
2006,06,28,03,47,8.20
2006,06,28,03,48,8.20
2006,06,28,03,49,8.20
2006,06,28,03,50,8.20
2006,06,28,03,51,8.20
2006,06,28,03,52,8.20
2006,06,28,03,53,8.20
2006,06,28,03,54,8.20
2006,06,28,03,55,8.20
2006,06,28,03,56,8.20
2006,06,28,03,57,8.20
2006,06,28,03,58,8.20
2006,06,28,03,59,8.20
2006,06,28,04,00,8.20
2006,06,28,04,01,8.20
2006,06,28,04,02,8.20
2006,06,28,04,03,8.10
2006,06,28,04,04,8.10
2006,06,28,04,05,8.00
2006,06,28,04,06,8.00
2006,06,28,04,07,7.90
2006,06,28,04,08,7.80
2006,06,28,04,09,7.80
2006,06,28,04,10,7.80
2006,06,28,04,11,7.80
2006,06,28,04,12,7.80
2006,06,28,04,13,7.80
2006,06,28,04,14,7.80
2006,06,28,04,15,7.80
2006,06,28,04,16,7.80
2006,06,28,04,17,7.80
2006,06,28,04,18,7.80
2006,06,28,04,19,7.80
2006,06,28,04,20,7.80
2006,06,28,04,21,7.80
2006,06,28,04,22,7.80
2006,06,28,04,23,7.80
2006,06,28,04,24,7.80
2006,06,28,04,25,7.80
2006,06,28,04,26,7.80
2006,06,28,04,27,7.80
2006,06,28,04,28,7.80
2006,06,28,04,29,7.80
2006,06,28,04,30,7.70
2006,06,28,04,31,7.70
2006,06,28,04,32,7.70
2006,06,28,04,33,7.70
2006,06,28,04,34,7.60
2006,06,28,04,35,7.60
2006,06,28,04,36,7.60
2006,06,28,04,37,7.60
2006,06,28,04,38,7.70
2006,06,28,04,39,7.70
2006,06,28,04,40,7.70
2006,06,28,04,41,7.60
2006,06,28,04,42,7.60
2006,06,28,04,43,7.60
2006,06,28,04,44,7.60
2006,06,28,04,45,7.60
2006,06,28,04,46,7.70
2006,06,28,04,47,7.70
2006,06,28,04,48,7.70
2006,06,28,04,49,7.70
2006,06,28,04,50,7.80
2006,06,28,04,51,7.80
2006,06,28,04,52,7.80
2006,06,28,04,53,7.80
2006,06,28,04,54,7.80
2006,06,28,04,55,7.80
2006,06,28,04,56,7.80
2006,06,28,04,57,7.90
2006,06,28,04,58,7.90
2006,06,28,04,59,7.90
2006,06,28,05,00,7.90
2006,06,28,05,01,7.90
2006,06,28,05,02,7.90
2006,06,28,05,03,7.90
2006,06,28,05,04,7.90
2006,06,28,05,05,7.90
2006,06,28,05,06,7.90
2006,06,28,05,07,7.90
2006,06,28,05,08,7.90
2006,06,28,05,09,7.90
2006,06,28,05,10,8.00
2006,06,28,05,11,8.00
2006,06,28,05,12,8.10
2006,06,28,05,13,8.10
2006,06,28,05,14,8.00
2006,06,28,05,15,8.00
2006,06,28,05,16,8.00
2006,06,28,05,17,7.90
2006,06,28,05,18,7.90
2006,06,28,05,19,7.80
2006,06,28,05,20,7.80
2006,06,28,05,21,7.80
2006,06,28,05,22,7.80
2006,06,28,05,23,7.80
2006,06,28,05,24,7.80
2006,06,28,05,25,7.80
2006,06,28,05,26,7.80
2006,06,28,05,27,7.80
2006,06,28,05,28,7.80
2006,06,28,05,29,7.80
2006,06,28,05,30,7.90
2006,06,28,05,31,7.90
2006,06,28,05,32,7.90
2006,06,28,05,33,8.00
2006,06,28,05,34,8.00
2006,06,28,05,35,8.00
2006,06,28,05,36,8.10
2006,06,28,05,37,8.10
2006,06,28,05,38,8.10
2006,06,28,05,39,8.20
2006,06,28,05,40,8.20
2006,06,28,05,41,8.20
2006,06,28,05,42,8.20
2006,06,28,05,43,8.30
2006,06,28,05,44,8.30
2006,06,28,05,45,8.30
2006,06,28,05,46,8.30
2006,06,28,05,47,8.30
2006,06,28,05,48,8.30
2006,06,28,05,49,8.40
2006,06,28,05,50,8.40
2006,06,28,05,51,8.40
2006,06,28,05,52,8.40
2006,06,28,05,53,8.40
2006,06,28,05,54,8.40
2006,06,28,05,55,8.40
2006,06,28,05,56,8.50
2006,06,28,05,57,8.50
2006,06,28,05,58,8.50
2006,06,28,05,59,8.50
2006,06,28,06,00,8.50
2006,06,28,06,01,8.50
2006,06,28,06,02,8.50
2006,06,28,06,03,8.50
2006,06,28,06,04,8.40
2006,06,28,06,05,8.40
2006,06,28,06,06,8.30
2006,06,28,06,07,8.30
2006,06,28,06,08,8.30
2006,06,28,06,09,8.30
2006,06,28,06,10,8.30
2006,06,28,06,11,8.30
2006,06,28,06,12,8.30
2006,06,28,06,13,8.30
2006,06,28,06,14,8.30
2006,06,28,06,15,8.40
2006,06,28,06,16,8.40
2006,06,28,06,17,8.40
2006,06,28,06,18,8.50
2006,06,28,06,19,8.50
2006,06,28,06,20,8.50
2006,06,28,06,21,8.60
2006,06,28,06,22,8.60
2006,06,28,06,23,8.60
2006,06,28,06,24,8.70
2006,06,28,06,25,8.70
2006,06,28,06,26,8.70
2006,06,28,06,27,8.80
2006,06,28,06,28,8.80
2006,06,28,06,29,8.90
2006,06,28,06,30,9.00
2006,06,28,06,31,9.10
2006,06,28,06,32,9.10
2006,06,28,06,33,9.20
2006,06,28,06,34,9.20
2006,06,28,06,35,9.30
2006,06,28,06,36,9.40
2006,06,28,06,37,9.50
2006,06,28,06,38,9.50
2006,06,28,06,39,9.60
2006,06,28,06,40,9.70
2006,06,28,06,41,9.70
2006,06,28,06,42,9.80
2006,06,28,06,43,9.90
2006,06,28,06,44,10.00
2006,06,28,06,45,10.10
2006,06,28,06,46,10.20
2006,06,28,06,47,10.30
2006,06,28,06,48,10.40
2006,06,28,06,49,10.40
2006,06,28,06,50,10.60
2006,06,28,06,51,10.60
2006,06,28,06,52,10.70
2006,06,28,06,53,10.80
2006,06,28,06,54,10.80
2006,06,28,06,55,10.90
2006,06,28,06,56,11.00
2006,06,28,06,57,11.10
2006,06,28,06,58,11.20
2006,06,28,06,59,11.30
2006,06,28,07,00,11.40
2006,06,28,07,01,11.50
2006,06,28,07,02,11.60
2006,06,28,07,03,11.80
2006,06,28,07,04,11.80
2006,06,28,07,05,11.80
2006,06,28,07,06,11.80
2006,06,28,07,07,11.90
2006,06,28,07,08,11.90
2006,06,28,07,09,11.90
2006,06,28,07,10,12.00
2006,06,28,07,11,12.00
2006,06,28,07,12,12.10
2006,06,28,07,13,12.20
2006,06,28,07,14,12.30
2006,06,28,07,15,12.40
2006,06,28,07,16,12.50
2006,06,28,07,17,12.60
2006,06,28,07,18,12.70
2006,06,28,07,19,12.80
2006,06,28,07,20,12.80
2006,06,28,07,21,12.90
2006,06,28,07,22,13.00
2006,06,28,07,23,13.00
2006,06,28,07,24,13.10
2006,06,28,07,25,13.20
2006,06,28,07,26,13.20
2006,06,28,07,27,13.30
2006,06,28,07,28,13.30
2006,06,28,07,29,13.30
2006,06,28,07,30,13.30
2006,06,28,07,31,13.30
2006,06,28,07,32,13.30
2006,06,28,07,33,13.30
2006,06,28,07,34,13.30
2006,06,28,07,35,13.30
2006,06,28,07,36,13.30
2006,06,28,07,37,13.20
2006,06,28,07,38,13.20
2006,06,28,07,39,13.10
2006,06,28,07,40,13.10
2006,06,28,07,41,13.10
2006,06,28,07,42,13.10
2006,06,28,07,43,13.10
2006,06,28,07,44,13.10
2006,06,28,07,45,13.10
2006,06,28,07,46,13.10
2006,06,28,07,47,13.10
2006,06,28,07,48,13.10
2006,06,28,07,49,13.00
2006,06,28,07,50,12.90
2006,06,28,07,51,12.90
2006,06,28,07,52,12.80
2006,06,28,07,53,12.80
2006,06,28,07,54,12.80
2006,06,28,07,55,12.80
2006,06,28,07,56,12.80
2006,06,28,07,57,12.80
2006,06,28,07,58,12.80
2006,06,28,07,59,12.80
2006,06,28,08,00,12.80
2006,06,28,08,01,12.80
2006,06,28,08,02,12.90
2006,06,28,08,03,12.90
2006,06,28,08,04,13.00
2006,06,28,08,05,13.00
2006,06,28,08,06,13.10
2006,06,28,08,07,13.20
2006,06,28,08,08,13.30
2006,06,28,08,09,13.40
2006,06,28,08,10,13.50
2006,06,28,08,11,13.50
2006,06,28,08,12,13.60
2006,06,28,08,13,13.70
2006,06,28,08,14,13.70
2006,06,28,08,15,13.80
2006,06,28,08,16,13.90
2006,06,28,08,17,14.00
2006,06,28,08,18,14.00
2006,06,28,08,19,14.10
2006,06,28,08,20,14.10
2006,06,28,08,21,14.20
2006,06,28,08,22,14.20
2006,06,28,08,23,14.20
2006,06,28,08,24,14.20
2006,06,28,08,25,14.20
2006,06,28,08,26,14.30
2006,06,28,08,27,14.40
2006,06,28,08,28,14.40
2006,06,28,08,29,14.50
2006,06,28,08,30,14.60
2006,06,28,08,31,14.60
2006,06,28,08,32,14.70
2006,06,28,08,33,14.80
2006,06,28,08,34,14.80
2006,06,28,08,35,14.90
2006,06,28,08,36,15.00
2006,06,28,08,37,15.00
2006,06,28,08,38,15.10
2006,06,28,08,39,15.10
2006,06,28,08,40,15.10
2006,06,28,08,41,15.10
2006,06,28,08,42,15.10
2006,06,28,08,43,15.10
2006,06,28,08,44,15.10
2006,06,28,08,45,15.10
2006,06,28,08,46,15.10
2006,06,28,08,47,15.10
2006,06,28,08,48,15.20
2006,06,28,08,49,15.20
2006,06,28,08,50,15.20
2006,06,28,08,51,15.20
2006,06,28,08,52,15.30
2006,06,28,08,53,15.30
2006,06,28,08,54,15.40
2006,06,28,08,55,15.50
2006,06,28,08,56,15.50
2006,06,28,08,57,15.60
2006,06,28,08,58,15.70
2006,06,28,08,59,15.80
2006,06,28,09,00,15.80
2006,06,28,09,01,15.80
2006,06,28,09,02,15.80
2006,06,28,09,03,15.80
2006,06,28,09,04,15.80
2006,06,28,09,05,15.80
2006,06,28,09,06,15.80
2006,06,28,09,07,15.80
2006,06,28,09,08,15.90
2006,06,28,09,09,16.00
2006,06,28,09,10,16.10
2006,06,28,09,11,16.10
2006,06,28,09,12,16.10
2006,06,28,09,13,16.20
2006,06,28,09,14,16.30
2006,06,28,09,15,16.30
2006,06,28,09,16,16.30
2006,06,28,09,17,16.40
2006,06,28,09,18,16.40
2006,06,28,09,19,16.40
2006,06,28,09,20,16.30
2006,06,28,09,21,16.30
2006,06,28,09,22,16.20
2006,06,28,09,23,16.10
2006,06,28,09,24,16.00
2006,06,28,09,25,15.90
2006,06,28,09,26,15.90
2006,06,28,09,27,15.90
2006,06,28,09,28,15.90
2006,06,28,09,29,15.90
2006,06,28,09,30,15.80
2006,06,28,09,31,15.80
2006,06,28,09,32,15.90
2006,06,28,09,33,16.00
2006,06,28,09,34,16.10
2006,06,28,09,35,16.10
2006,06,28,09,36,16.10
2006,06,28,09,37,16.00
2006,06,28,09,38,15.90
2006,06,28,09,39,15.80
2006,06,28,09,40,15.80
2006,06,28,09,41,15.80
2006,06,28,09,42,15.80
2006,06,28,09,43,15.90
2006,06,28,09,44,16.00
2006,06,28,09,45,16.10
2006,06,28,09,46,16.10
2006,06,28,09,47,16.10
2006,06,28,09,48,16.20
2006,06,28,09,49,16.30
2006,06,28,09,50,16.40
2006,06,28,09,51,16.40
2006,06,28,09,52,16.40
2006,06,28,09,53,16.40
2006,06,28,09,54,16.40
2006,06,28,09,55,16.30
2006,06,28,09,56,16.30
2006,06,28,09,57,16.30
2006,06,28,09,58,16.30
2006,06,28,09,59,16.30
2006,06,28,10,00,16.30
2006,06,28,10,01,16.30
2006,06,28,10,02,16.30
2006,06,28,10,03,16.30
2006,06,28,10,04,16.30
2006,06,28,10,05,16.30
2006,06,28,10,06,16.30
2006,06,28,10,07,16.30
2006,06,28,10,08,16.30
2006,06,28,10,09,16.30
2006,06,28,10,10,16.30
2006,06,28,10,11,16.20
2006,06,28,10,12,16.20
2006,06,28,10,13,16.10
2006,06,28,10,14,16.10
2006,06,28,10,15,16.10
2006,06,28,10,16,16.10
2006,06,28,10,17,16.10
2006,06,28,10,18,16.10
2006,06,28,10,19,16.20
2006,06,28,10,20,16.20
2006,06,28,10,21,16.20
2006,06,28,10,22,16.30
2006,06,28,10,23,16.40
2006,06,28,10,24,16.40
2006,06,28,10,25,16.40
2006,06,28,10,26,16.50
2006,06,28,10,27,16.60
2006,06,28,10,28,16.70
2006,06,28,10,29,16.70
2006,06,28,10,30,16.60
2006,06,28,10,31,16.60
2006,06,28,10,32,16.50
2006,06,28,10,33,16.40
2006,06,28,10,34,16.40
2006,06,28,10,35,16.40
2006,06,28,10,36,16.40
2006,06,28,10,37,16.40
2006,06,28,10,38,16.40
2006,06,28,10,39,16.40
2006,06,28,10,40,16.40
2006,06,28,10,41,16.40
2006,06,28,10,42,16.40
2006,06,28,10,43,16.40
2006,06,28,10,44,16.40
2006,06,28,10,45,16.40
2006,06,28,10,46,16.30
2006,06,28,10,47,16.30
2006,06,28,10,48,16.20
2006,06,28,10,49,16.10
2006,06,28,10,50,16.10
2006,06,28,10,51,16.10
2006,06,28,10,52,16.10
2006,06,28,10,53,16.10
2006,06,28,10,54,16.10
2006,06,28,10,55,16.20
2006,06,28,10,56,16.30
2006,06,28,10,57,16.40
2006,06,28,10,58,16.40
2006,06,28,10,59,16.30
2006,06,28,11,00,16.30
2006,06,28,11,01,16.30
2006,06,28,11,02,16.30
2006,06,28,11,03,16.30
2006,06,28,11,04,16.30
2006,06,28,11,05,16.40
2006,06,28,11,06,16.40
2006,06,28,11,07,16.40
2006,06,28,11,08,16.30
2006,06,28,11,09,16.30
2006,06,28,11,10,16.20
2006,06,28,11,11,16.10
2006,06,28,11,12,16.10
2006,06,28,11,13,16.10
2006,06,28,11,14,16.20
2006,06,28,11,15,16.20
2006,06,28,11,16,16.20
2006,06,28,11,17,16.20
2006,06,28,11,18,16.20
2006,06,28,11,19,16.20
2006,06,28,11,20,16.30
2006,06,28,11,21,16.40
2006,06,28,11,22,16.50
2006,06,28,11,23,16.60
2006,06,28,11,24,16.70
2006,06,28,11,25,16.80
2006,06,28,11,26,17.00
2006,06,28,11,27,17.10
2006,06,28,11,28,17.20
2006,06,28,11,29,17.30
2006,06,28,11,30,17.30
2006,06,28,11,31,17.30
2006,06,28,11,32,17.30
2006,06,28,11,39,16.90
2006,06,28,11,40,16.90
2006,06,28,11,41,16.90
2006,06,28,11,42,17.00
2006,06,28,11,43,17.10
2006,06,28,11,44,16.90
2006,06,28,11,45,17.00
2006,06,28,11,46,17.00
2006,06,28,11,47,17.00
2006,06,28,11,48,17.10
2006,06,28,11,49,17.10
2006,06,28,11,50,17.10
2006,06,28,11,51,17.10
2006,06,28,11,52,17.00
2006,06,28,11,53,16.90
2006,06,28,11,54,16.90
2006,06,28,11,55,16.90
2006,06,28,11,56,16.90
2006,06,28,11,57,16.90
2006,06,28,11,58,16.90
2006,06,28,11,59,16.90
2006,06,28,12,00,16.90
2006,06,28,12,01,16.90
2006,06,28,12,02,16.90
2006,06,28,12,03,17.00
2006,06,28,12,04,16.90
2006,06,28,12,05,16.90
2006,06,28,12,06,16.90
2006,06,28,12,07,17.00
2006,06,28,12,08,17.10
2006,06,28,12,09,17.20
2006,06,28,12,10,17.40
2006,06,28,12,11,17.50
2006,06,28,12,12,17.70
2006,06,28,12,13,17.80
2006,06,28,12,14,17.90
2006,06,28,12,15,17.80
2006,06,28,12,16,17.70
2006,06,28,12,17,17.50
2006,06,28,12,18,17.50
2006,06,28,12,19,17.40
2006,06,28,12,20,17.40
2006,06,28,12,21,17.40
2006,06,28,12,22,17.50
2006,06,28,12,23,17.50
2006,06,28,12,24,17.50
2006,06,28,12,25,17.40
2006,06,28,12,26,17.40
2006,06,28,12,27,17.30
2006,06,28,12,28,17.30
2006,06,28,12,29,17.30
2006,06,28,12,30,17.30
2006,06,28,12,31,17.20
2006,06,28,12,32,17.20
2006,06,28,12,33,17.30
2006,06,28,12,34,17.40
2006,06,28,12,35,17.60
2006,06,28,12,36,17.80
2006,06,28,12,37,18.00
2006,06,28,12,38,18.10
2006,06,28,12,39,18.20
2006,06,28,12,40,18.20
2006,06,28,12,41,18.20
2006,06,28,12,42,18.30
2006,06,28,12,43,18.40
2006,06,28,12,44,18.40
2006,06,28,12,45,18.50
2006,06,28,12,46,18.60
2006,06,28,12,47,18.70
2006,06,28,12,48,18.70
2006,06,28,12,49,18.70
2006,06,28,12,50,18.70
2006,06,28,12,51,18.80
2006,06,28,12,52,18.90
2006,06,28,12,53,18.80
2006,06,28,12,54,18.60
2006,06,28,12,55,18.50
2006,06,28,12,56,18.50
2006,06,28,12,57,18.40
2006,06,28,12,58,18.20
2006,06,28,12,59,18.20
2006,06,28,13,00,18.20
2006,06,28,13,01,18.20
2006,06,28,13,02,18.20
2006,06,28,13,03,18.20
2006,06,28,13,04,18.20
2006,06,28,13,05,18.20
2006,06,28,13,06,18.20
2006,06,28,13,07,18.10
2006,06,28,13,08,18.10
2006,06,28,13,09,18.20
2006,06,28,13,10,18.20
2006,06,28,13,11,18.20
2006,06,28,13,12,18.20
2006,06,28,13,13,18.20
2006,06,28,13,14,18.20
2006,06,28,13,15,18.20
2006,06,28,13,16,18.20
2006,06,28,13,17,18.30
2006,06,28,13,18,18.30
2006,06,28,13,19,18.10
2006,06,28,13,20,18.00
2006,06,28,13,21,17.90
2006,06,28,13,22,17.80
2006,06,28,13,23,17.80
2006,06,28,13,24,17.80
2006,06,28,13,25,17.90
2006,06,28,13,26,17.90
2006,06,28,13,27,17.90
2006,06,28,13,28,17.90
2006,06,28,13,29,17.80
2006,06,28,13,30,17.80
2006,06,28,13,31,17.80
2006,06,28,13,32,17.80
2006,06,28,13,33,17.80
2006,06,28,13,34,17.90
2006,06,28,13,35,17.90
2006,06,28,13,36,18.00
2006,06,28,13,37,18.20
2006,06,28,13,38,18.40
2006,06,28,13,39,18.60
2006,06,28,13,40,18.70
2006,06,28,13,41,18.80
2006,06,28,13,42,18.80
2006,06,28,13,43,18.90
2006,06,28,13,44,18.90
2006,06,28,13,45,18.90
2006,06,28,13,46,18.90
2006,06,28,13,47,18.90
2006,06,28,13,48,19.00
2006,06,28,13,49,19.10
2006,06,28,13,50,19.10
2006,06,28,13,51,19.10
2006,06,28,13,52,19.20
2006,06,28,13,53,19.30
2006,06,28,13,54,19.40
2006,06,28,13,55,19.50
2006,06,28,13,56,19.60
2006,06,28,13,57,19.50
2006,06,28,13,58,19.40
2006,06,28,13,59,19.30
2006,06,28,14,00,19.40
2006,06,28,14,01,19.40
2006,06,28,14,02,19.50
2006,06,28,14,03,19.50
2006,06,28,14,04,19.60
2006,06,28,14,05,19.60
2006,06,28,14,06,19.60
2006,06,28,14,07,19.60
2006,06,28,14,08,19.70
2006,06,28,14,09,19.80
2006,06,28,14,10,19.90
2006,06,28,14,11,20.00
2006,06,28,14,12,20.20
2006,06,28,14,13,20.20
2006,06,28,14,14,20.30
2006,06,28,14,15,20.40
2006,06,28,14,16,20.30
2006,06,28,14,17,20.30
2006,06,28,14,18,20.30
2006,06,28,14,19,20.30
2006,06,28,14,20,20.30
2006,06,28,14,21,20.40
2006,06,28,14,22,20.40
2006,06,28,14,23,20.40
2006,06,28,14,24,20.40
2006,06,28,14,25,20.40
2006,06,28,14,26,20.40
2006,06,28,14,27,20.60
2006,06,28,14,28,20.70
2006,06,28,14,29,20.80
2006,06,28,14,30,20.90
2006,06,28,14,31,20.90
2006,06,28,14,32,20.80
2006,06,28,14,33,20.80
2006,06,28,14,34,20.80
2006,06,28,14,35,20.80
2006,06,28,14,36,20.80
2006,06,28,14,37,20.70
2006,06,28,14,38,20.70
2006,06,28,14,39,20.80
2006,06,28,14,40,20.70
2006,06,28,14,41,20.70
2006,06,28,14,42,20.80
2006,06,28,14,43,20.80
2006,06,28,14,44,20.90
2006,06,28,14,45,20.90
2006,06,28,14,46,20.90
2006,06,28,14,47,20.90
2006,06,28,14,48,20.90
2006,06,28,14,49,20.90
2006,06,28,14,50,20.90
2006,06,28,14,51,21.00
2006,06,28,14,52,21.10
2006,06,28,14,53,21.10
2006,06,28,14,54,21.10
2006,06,28,14,55,21.00
2006,06,28,14,56,21.00
2006,06,28,14,57,21.00
2006,06,28,14,58,20.90
2006,06,28,14,59,20.80
2006,06,28,15,00,20.80
2006,06,28,15,01,20.80
2006,06,28,15,02,20.90
2006,06,28,15,03,21.00
2006,06,28,15,04,21.10
2006,06,28,15,05,21.10
2006,06,28,15,06,21.10
2006,06,28,15,07,21.00
2006,06,28,15,08,21.00
2006,06,28,15,09,21.00
2006,06,28,15,10,21.00
2006,06,28,15,11,21.00
2006,06,28,15,12,21.10
2006,06,28,15,13,21.10
2006,06,28,15,14,21.20
2006,06,28,15,15,21.20
2006,06,28,15,16,21.30
2006,06,28,15,17,21.30
2006,06,28,15,18,21.30
2006,06,28,15,19,21.30
2006,06,28,15,20,21.40
2006,06,28,15,21,21.50
2006,06,28,15,22,21.40
2006,06,28,15,23,21.30
2006,06,28,15,24,21.40
2006,06,28,15,25,21.30
2006,06,28,15,26,21.30
2006,06,28,15,27,21.30
2006,06,28,15,28,21.30
2006,06,28,15,29,21.30
2006,06,28,15,30,21.40
2006,06,28,15,31,21.40
2006,06,28,15,32,21.50
2006,06,28,15,33,21.60
2006,06,28,15,34,21.60
2006,06,28,15,35,21.60
2006,06,28,15,36,21.60
2006,06,28,15,37,21.50
2006,06,28,15,38,21.40
2006,06,28,15,39,21.40
2006,06,28,15,40,21.30
2006,06,28,15,41,21.30
2006,06,28,15,42,21.20
2006,06,28,15,43,21.10
2006,06,28,15,44,21.00
2006,06,28,15,45,21.00
2006,06,28,15,46,21.00
2006,06,28,15,47,20.90
2006,06,28,15,48,20.90
2006,06,28,15,49,20.90
2006,06,28,15,50,20.90
2006,06,28,15,51,20.80
2006,06,28,15,52,20.80
2006,06,28,15,53,20.70
2006,06,28,15,54,20.70
2006,06,28,15,55,20.70
2006,06,28,15,56,20.60
2006,06,28,15,57,20.60
2006,06,28,15,58,20.50
2006,06,28,15,59,20.50
2006,06,28,16,00,20.30
2006,06,28,16,01,20.30
2006,06,28,16,02,20.30
2006,06,28,16,03,20.30
2006,06,28,16,04,20.30
2006,06,28,16,05,20.20
2006,06,28,16,06,20.20
2006,06,28,16,07,20.20
2006,06,28,16,08,20.30
2006,06,28,16,09,20.40
2006,06,28,16,10,20.50
2006,06,28,16,11,20.50
2006,06,28,16,12,20.50
2006,06,28,16,13,20.60
2006,06,28,16,14,20.60
2006,06,28,16,15,20.60
2006,06,28,16,16,20.70
2006,06,28,16,17,20.70
2006,06,28,16,18,20.70
2006,06,28,16,19,20.70
2006,06,28,16,20,20.70
2006,06,28,16,21,20.60
2006,06,28,16,22,20.50
2006,06,28,16,23,20.40
2006,06,28,16,24,20.20
2006,06,28,16,25,20.00
2006,06,28,16,26,19.80
2006,06,28,16,27,19.70
2006,06,28,16,28,19.70
2006,06,28,16,29,19.80
2006,06,28,16,30,19.80
2006,06,28,16,31,19.90
2006,06,28,16,32,19.80
2006,06,28,16,33,19.60
2006,06,28,16,34,19.50
2006,06,28,16,35,19.50
2006,06,28,16,36,19.50
2006,06,28,16,37,19.50
2006,06,28,16,38,19.50
2006,06,28,16,39,19.60
2006,06,28,16,40,19.60
2006,06,28,16,41,19.60
2006,06,28,16,42,19.70
2006,06,28,16,43,19.80
2006,06,28,16,44,19.90
2006,06,28,16,45,19.90
2006,06,28,16,46,19.80
2006,06,28,16,47,19.90
2006,06,28,16,48,19.80
2006,06,28,16,49,19.90
2006,06,28,16,50,19.90
2006,06,28,16,51,19.90
2006,06,28,16,52,19.90
2006,06,28,16,53,19.90
2006,06,28,16,54,19.90
2006,06,28,16,55,19.90
2006,06,28,16,56,19.90
2006,06,28,16,57,19.90
2006,06,28,16,58,19.80
2006,06,28,16,59,19.70
2006,06,28,17,00,19.60
2006,06,28,17,01,19.50
2006,06,28,17,02,19.40
2006,06,28,17,03,19.30
2006,06,28,17,04,19.30
2006,06,28,17,05,19.20
2006,06,28,17,06,19.10
2006,06,28,17,07,19.20
2006,06,28,17,08,19.10
2006,06,28,17,09,19.10
2006,06,28,17,10,19.00
2006,06,28,17,11,19.00
2006,06,28,17,12,19.10
2006,06,28,17,13,18.90
2006,06,28,17,14,18.90
2006,06,28,17,15,18.90
2006,06,28,17,16,18.90
2006,06,28,17,17,18.80
2006,06,28,17,18,18.70
2006,06,28,17,19,18.70
2006,06,28,17,20,18.80
2006,06,28,17,21,18.90
2006,06,28,17,22,19.00
2006,06,28,17,23,19.10
2006,06,28,17,24,19.20
2006,06,28,17,25,19.20
2006,06,28,17,26,19.30
2006,06,28,17,27,19.40
2006,06,28,17,28,19.40
2006,06,28,17,29,19.50
2006,06,28,17,30,19.50
2006,06,28,17,31,19.40
2006,06,28,17,32,19.40
2006,06,28,17,33,19.50
2006,06,28,17,34,19.50
2006,06,28,17,35,19.60
2006,06,28,17,36,19.60
2006,06,28,17,37,19.60
2006,06,28,17,38,19.70